Dewpoint
54 53 53 53 54 54 54 55 55 55 55 56 56 56 56 57 57 52 34 36 43 57 55 28 23 15 10 7 10 16 11 12 16 40 50 55 53 53 55 57 56 57 57 59 65
53 53 53 53 53 53 54 54 54 55 55 55 55 55 56 57 53 45 48 57 59 63 31 23 20 14 9 10 9 9 10 12 15 45 52 55 52 52 56 56 56 58 62 63 65
53 52 52 53 53 53 54 54 54 54 54 55 55 55 55 56 35 27 61 61 61 61 23 24 19 13 7 7 7 6 5 9 13 33 53 53 50 55 57 55 55 58 61 63 64
52 52 52 52 53 53 53 54 54 54 54 54 54 54 55 52 4 34 67 66 63 51 26 20 11 8 11 17 7 22 3 2 13 45 52 51 52 53 56 57 55 59 61 62 63
52 52 52 52 52 52 53 53 53 54 54 54 54 54 52 36 35 37 65 64 47 28 26 18 9 11 26 9 7 2 5 3 35 48 49 52 53 50 55 58 61 61 62 62 63
51 51 51 51 52 52 53 53 54 53 53 54 53 54 45 23 23 39 45 43 36 26 19 10 8 11 14 12 8 8 7 9 31 50 52 51 52 54 54 59 61 61 61 62 63
50 51 51 51 51 52 53 53 53 53 54 54 53 53 46 21 36 38 29 25 21 20 13 12 9 15 22 19 19 15 14 21 50 53 52 52 51 50 56 58 59 60 61 61 62
50 51 50 50 51 51 52 53 53 53 54 54 55 52 28 30 37 33 30 30 29 17 19 20 21 21 20 21 17 16 12 10 40 51 50 49 47 49 57 58 57 59 60 60 61
50 51 50 50 51 51 52 52 53 54 55 57 51 46 21 38 37 37 31 30 34 24 20 19 19 18 19 16 13 16 17 18 32 49 49 46 50 50 56 58 57 58 59 59 59
50 51 51 50 51 52 52 52 52 54 54 53 47 33 25 25 34 32 33 32 33 29 25 20 20 18 18 15 7 14 14 16 10 32 48 49 51 52 55 58 56 57 58 58 57
49 50 51 51 52 51 50 43 31 29 44 31 27 23 21 24 28 30 29 30 28 19 18 18 14 14 15 17 16 18 17 16 15 22 31 48 50 52 55 57 56 56 56 56 55
49 49 50 51 51 51 46 29 32 29 28 27 30 30 28 27 25 26 26 23 23 20 20 16 15 16 18 18 17 17 16 13 14 19 14 25 49 53 55 56 55 55 55 54 53
50 50 50 51 50 44 37 30 34 32 26 27 26 28 26 28 24 26 27 25 24 21 20 15 15 19 19 18 17 16 14 14 13 32 46 50 51 53 55 57 56 55 56 54 55
50 50 50 50 32 39 33 34 38 35 24 23 28 25 27 29 26 30 29 25 26 21 21 21 22 21 21 19 17 16 17 16 15 27 26 38 33 50 53 54 56 54 54 54 53
49 50 50 49 42 32 30 39 38 34 4 15 19 24 23 20 21 25 28 26 23 22 21 20 23 23 21 21 19 18 21 17 16 29 31 30 30 42 52 50 55 54 53 53 51
48 49 49 46 43 42 41 39 30 20 5 20 16 14 16 18 18 20 27 27 26 24 26 21 24 22 21 22 20 21 17 19 27 31 28 28 28 35 49 51 53 55 53 52 50
48 49 47 44 32 39 41 30 12 1 19 18 14 18 15 15 19 22 22 24 24 21 22 24 23 23 23 22 24 18 14 12 13 14 18 27 28 28 48 50 51 55 53 51 50
48 48 47 44 43 43 31 15 0 18 21 19 18 19 18 17 17 28 21 20 26 26 23 22 20 23 23 21 18 15 14 15 9 13 13 27 26 32 47 49 51 55 54 50 50
47 39 41 43 45 41 19 12 12 24 21 19 25 18 17 27 19 26 28 27 25 26 22 22 22 23 23 22 20 19 16 16 15 23 22 24 37 39 49 47 48 50 51 49 50
40 39 39 43 45 36 19 21 23 23 28 30 30 31 29 25 25 23 25 32 31 36 29 27 23 23 23 24 22 19 21 17 21 17 19 24 34 30 46 48 48 49 50 49 50
37 26 33 43 48 41 26 27 28 32 38 39 34 33 34 36 36 23 25 33 43 38 35 33 25 28 22 22 19 20 19 23 22 25 19 19 30 36 41 47 48 50 50 50 50
36 13 27 40 36 35 28 25 34 31 35 37 39 39 39 40 36 28 33 40 42 44 41 41 31 26 24 25 26 23 21 23 23 19 27 26 25 35 37 45 48 50 51 51 51
34 36 40 35 25 20 24 24 27 25 25 36 40 43 43 40 34 40 42 43 43 44 43 42 35 32 31 28 29 29 26 27 29 31 31 27 27 33 36 40 46 49 52 51 51
36 26 28 31 27 25 24 23 24 28 33 43 43 43 40 39 41 39 41 42 43 45 52 48 37 35 33 35 39 38 35 32 30 27 27 29 28 32 34 37 46 48 52 52 50
33 29 28 22 19 24 26 23 24 24 27 29 32 41 40 33 36 39 41 39 41 48 45 46 39 41 39 39 39 38 38 32 30 28 27 27 30 32 33 34 48 52 52 52 49
34 31 32 27 26 23 25 22 25 26 27 27 30 33 37 33 37 32 34 37 39 39 41 46 39 42 37 37 39 38 37 37 32 34 33 32 30 33 35 39 51 52 52 51 49
37 36 31 26 25 21 24 24 27 26 27 30 31 30 33 35 31 30 29 32 38 40 38 41 42 41 36 37 39 34 36 35 33 35 35 32 33 37 36 38 49 51 52 52 48
Lifted_Index
15 15 15 15 15 15 15 14 14 14 14 13 13 13 13 13 12 11 10 10 10 11 11 10 9 8 7 7 7 6 4 3 2 1 -1 -2 -2 -2 -3 -3 -3 -3 -3 -3 -4
16 16 16 16 16 15 15 15 14 14 14 14 14 14 13 12 11 9 9 9 10 10 10 10 9 8 7 6 6 5 4 3 3 1 -1 -2 -2 -2 -3 -3 -3 -3 -3 -4 -4
16 16 16 16 16 16 16 15 15 15 14 14 14 14 13 12 9 8 7 8 9 10 10 10 8 7 6 6 6 5 4 4 3 1 -1 -3 -3 -3 -3 -3 -3 -3 -4 -4 -4
17 17 17 17 17 16 16 16 16 15 15 15 15 14 13 11 8 7 6 6 8 9 10 9 8 7 5 5 6 5 5 4 3 1 -1 -2 -3 -3 -3 -3 -3 -3 -4 -4 -4
17 17 17 17 16 16 16 16 16 16 15 15 15 14 12 10 9 8 7 7 8 10 10 9 8 7 6 6 6 6 5 5 4 1 -1 -2 -2 -3 -3 -3 -3 -3 -4 -4 -4
17 17 17 17 16 16 16 16 16 15 15 15 15 13 11 9 9 8 7 7 9 10 9 9 8 8 7 7 7 6 6 5 3 1 -0 -1 -2 -2 -3 -4 -4 -4 -4 -4 -4
18 18 17 17 16 16 16 15 15 15 15 14 14 12 10 9 9 8 7 7 9 9 9 9 9 8 8 7 7 6 5 4 3 1 -0 -1 -1 -2 -3 -4 -4 -4 -4 -4 -4
17 17 17 17 16 16 15 14 14 14 13 13 13 11 10 10 9 8 7 7 8 9 9 9 9 9 8 7 6 5 4 3 2 -0 -1 -1 -2 -3 -4 -4 -4 -4 -4 -4 -4
16 16 16 16 16 15 14 13 12 12 12 11 11 10 9 9 9 8 8 7 8 8 9 9 9 8 7 5 4 4 3 3 1 -1 -2 -2 -2 -3 -4 -5 -5 -5 -4 -4 -4
15 15 15 15 15 14 12 11 11 10 10 10 9 9 9 9 8 8 8 8 7 8 8 8 7 6 5 4 3 3 3 3 2 -0 -1 -2 -3 -3 -4 -5 -5 -5 -5 -4 -4
15 14 14 14 13 12 11 10 10 9 9 9 8 8 8 8 8 8 8 8 7 7 8 7 6 5 5 4 4 3 3 3 2 1 -0 -2 -2 -3 -5 -5 -5 -4 -4 -4 -4
14 14 13 13 12 11 10 10 10 9 7 7 7 7 8 8 8 7 7 7 7 7 7 6 5 5 6 5 5 4 3 3 2 2 0 -1 -2 -4 -4 -5 -4 -4 -4 -4 -4
14 13 13 12 11 11 10 10 10 9 7 6 6 7 7 7 7 6 7 7 6 6 6 6 5 6 6 6 5 4 3 2 2 1 -0 -1 -2 -4 -4 -4 -4 -4 -4 -3 -3
13 13 12 12 11 10 9 9 9 8 5 5 6 6 7 7 6 6 6 6 6 6 6 6 5 5 5 5 5 4 3 2 2 1 0 -1 -2 -3 -4 -4 -4 -4 -4 -3 -3
13 12 12 11 10 10 9 9 8 6 4 4 6 6 6 6 6 6 6 6 5 5 6 5 5 5 5 5 5 4 3 2 2 1 0 0 -1 -2 -4 -4 -4 -4 -4 -4 -3
12 12 11 10 9 9 9 8 6 4 3 4 6 6 5 5 5 6 6 5 5 5 5 5 4 4 4 4 4 4 3 2 1 1 0 0 -0 -1 -3 -4 -4 -4 -4 -4 -3
11 11 10 8 8 8 7 6 4 3 3 5 5 5 5 4 4 5 5 5 5 4 4 4 4 4 4 4 3 3 3 2 1 0 0 0 0 -1 -2 -3 -4 -4 -4 -4 -3
10 10 8 6 6 6 6 5 3 3 4 5 4 4 4 3 3 3 4 4 4 3 3 3 3 3 3 3 3 2 2 1 1 0 0 0 0 -0 -1 -3 -3 -4 -4 -3 -3
10 8 6 4 4 5 5 4 3 3 4 4 3 2 2 3 3 2 2 2 2 2 3 3 3 3 3 2 2 2 2 1 1 0 0 0 0 -0 -1 -2 -3 -3 -3 -3 -2
9 7 5 3 4 4 4 4 4 4 3 3 3 2 2 2 2 2 2 1 1 1 2 3 3 3 2 2 2 1 1 1 1 0 0 0 1 0 -0 -1 -2 -2 -2 -2 -1
8 6 4 3 3 4 4 4 4 4 4 3 3 3 2 2 2 2 2 1 1 1 1 1 2 2 2 2 1 1 1 1 1 0 0 0 1 1 0 -1 -1 -1 -1 -1 -1
7 6 4 3 4 4 4 4 4 4 4 4 3 3 3 2 2 2 1 1 -0 -0 0 0 1 1 1 1 1 1 1 1 0 0 0 0 0 1 0 -0 -0 -1 -1 -1 -1
7 6 5 4 5 5 5 4 5 5 5 4 3 3 3 2 2 2 1 1 -0 -1 -1 -0 0 1 1 1 0 0 0 0 0 0 0 0 0 0 0 0 -0 -0 -1 -1 -1
7 7 6 6 6 6 5 5 5 5 5 5 4 4 4 3 2 2 1 1 0 -0 -1 -1 -0 0 1 1 0 -0 -0 -0 -0 0 0 0 0 0 0 0 -0 -0 -1 -1 -1
8 8 7 7 6 6 6 6 5 6 6 6 5 5 5 4 4 3 2 2 1 0 -0 -1 -0 -0 0 1 0 -0 -0 -0 -0 -0 -0 -0 0 0 0 0 -0 -1 -1 -1 -1
9 9 9 8 8 7 7 7 7 7 7 7 7 7 6 5 5 4 4 3 2 1 1 -0 -0 -0 1 1 1 0 0 0 -0 -0 -1 -0 -0 0 0 0 -0 -1 -1 -2 -2
10 10 10 9 8 8 8 8 8 8 8 8 8 7 7 6 6 6 5 4 3 2 1 0 -0 -0 0 1 1 0 0 0 -0 -1 -1 -0 -0 0 0 0 -0 -1 -2 -2 -2